,,,PA_Meas_PMT16A,,PR_Meas_QMR101_102,,RH_Meas_QMH101,,SR_Meas_QMS101,,TA_Meas_QMH101,,GenWind,,GenWind,
date,time,status,PA,status,PR,status,RH,status,SR,status,TA,status,DirAvg,status,SpdAvg,
2009-08-07, 00:00:04,VALID,998.68,VALID,0,VALID,56.0548,VALID,0,VALID,27.9361,VALID,182,VALID,7.18828,
2009-08-07, 00:01:04,VALID,998.655,VALID,0,VALID,56.3905,VALID,0,VALID,27.9144,VALID,149,VALID,3.59453,
2009-08-07, 00:02:04,VALID,998.665,VALID,0,VALID,56.5126,VALID,0.112286,VALID,27.8363,VALID,173,VALID,5.24453,
2009-08-07, 00:03:04,VALID,998.625,VALID,0,VALID,56.7339,VALID,0.112286,VALID,27.8384,VALID,172,VALID,3.99727,
2009-08-07, 00:04:04,VALID,998.576,VALID,0,VALID,56.8864,VALID,0.112286,VALID,27.8363,VALID,180,VALID,5.37148,
2009-08-07, 00:05:04,VALID,998.594,VALID,0,VALID,56.36,VALID,0,VALID,27.8754,VALID,171,VALID,6.18906,
2009-08-07, 00:06:04,VALID,998.618,VALID,0,VALID,56.3676,VALID,0,VALID,27.9361,VALID,184,VALID,4.9668,
2009-08-07, 00:07:04,VALID,998.645,VALID,0,VALID,56.2379,VALID,0,VALID,27.9947,VALID,194,VALID,4.99336,
2009-08-07, 00:08:04,VALID,998.622,VALID,0,VALID,56.2913,VALID,0.112286,VALID,27.934,VALID,200,VALID,4.51172,
2009-08-07, 00:09:04,VALID,998.654,VALID,0,VALID,56.6423,VALID,0,VALID,27.934,VALID,193,VALID,4.49844,
2009-08-07, 00:10:04,VALID,998.657,VALID,0,VALID,56.9551,VALID,0.112286,VALID,27.8949,VALID,188,VALID,4.19414,
2009-08-07, 00:11:04,VALID,998.618,VALID,0,VALID,56.6194,VALID,0,VALID,27.8754,VALID,204,VALID,6.02656,
2009-08-07, 00:12:04,VALID,998.638,VALID,0,VALID,56.421,VALID,0,VALID,27.9361,VALID,193,VALID,5.53242,
2009-08-07, 00:13:04,VALID,998.646,VALID,0,VALID,56.5813,VALID,0,VALID,27.9773,VALID,183,VALID,4.33125,
2009-08-07, 00:14:04,VALID,998.652,VALID,0,VALID,56.7796,VALID,0,VALID,27.9165,VALID,196,VALID,3.14805,
2009-08-07, 00:15:04,VALID,998.626,VALID,0,VALID,56.8102,VALID,0,VALID,27.9187,VALID,180,VALID,4.35078,
2009-08-07, 00:16:04,VALID,998.591,VALID,0,VALID,57.184,VALID,0,VALID,27.8775,VALID,194,VALID,3.6207,
2009-08-07, 00:17:04,VALID,998.542,VALID,0,VALID,57.0924,VALID,0,VALID,27.8405,VALID,193,VALID,3.74023,
2009-08-07, 00:18:04,VALID,998.491,VALID,0,VALID,57.0696,VALID,0,VALID,27.8189,VALID,188,VALID,4.43633,
2009-08-07, 00:19:04,VALID,998.452,VALID,0,VALID,57.3976,VALID,0,VALID,27.8014,VALID,190,VALID,4.20703,
2009-08-07, 00:20:04,VALID,998.438,VALID,0,VALID,57.2527,VALID,0,VALID,27.821,VALID,192,VALID,4.26484,
2009-08-07, 00:21:04,VALID,998.394,VALID,0,VALID,56.9246,VALID,0,VALID,27.8189,VALID,193,VALID,4.42734,
2009-08-07, 00:22:04,VALID,998.351,VALID,0,VALID,56.9627,VALID,0,VALID,27.8405,VALID,177,VALID,5.76914,
2009-08-07, 00:23:04,VALID,998.353,VALID,0,VALID,57.1764,VALID,0,VALID,27.7993,VALID,184,VALID,6.29805,
2009-08-07, 00:24:04,VALID,998.342,VALID,0,VALID,57.0085,VALID,0,VALID,27.8189,VALID,183,VALID,5.53633,
2009-08-07, 00:25:04,VALID,998.372,VALID,0,VALID,57.0848,VALID,0,VALID,27.7993,VALID,200,VALID,4.30781,
2009-08-07, 00:26:04,VALID,998.394,VALID,0,VALID,57.2069,VALID,0,VALID,27.7603,VALID,181,VALID,4.95,
2009-08-07, 00:27:04,VALID,998.424,VALID,0,VALID,57.1687,VALID,0,VALID,27.7819,VALID,189,VALID,6.49766,
2009-08-07, 00:28:04,VALID,998.438,VALID,0,VALID,57.4205,VALID,0,VALID,27.7603,VALID,182,VALID,4.16289,
2009-08-07, 00:29:04,VALID,998.437,VALID,0,VALID,56.9322,VALID,0,VALID,27.7798,VALID,182,VALID,6.21992,
2009-08-07, 00:30:04,VALID,998.507,VALID,0,VALID,57.3137,VALID,0,VALID,27.7993,VALID,184,VALID,3.45273,
2009-08-07, 00:31:04,VALID,998.534,VALID,0,VALID,57.4282,VALID,0,VALID,27.7603,VALID,188,VALID,3.11836,
2009-08-07, 00:32:04,VALID,998.492,VALID,0,VALID,57.5426,VALID,0,VALID,27.7017,VALID,186,VALID,4.58555,
2009-08-07, 00:33:04,VALID,998.521,VALID,0,VALID,57.4434,VALID,0,VALID,27.7017,VALID,174,VALID,5.09102,
2009-08-07, 00:34:04,VALID,998.552,VALID,0,VALID,57.8401,VALID,0,VALID,27.6626,VALID,176,VALID,4.59492,
2009-08-07, 00:35:04,VALID,998.563,VALID,0,VALID,58.1911,VALID,0,VALID,27.604,VALID,178,VALID,4.22344,
2009-08-07, 00:36:04,VALID,998.557,VALID,0,VALID,58.0309,VALID,0,VALID,27.5845,VALID,180,VALID,5.76055,
2009-08-07, 00:37:04,VALID,998.563,VALID,0,VALID,58.1911,VALID,0,VALID,27.604,VALID,183,VALID,5.26289,
2009-08-07, 00:38:04,VALID,998.559,VALID,0,VALID,58.4276,VALID,0,VALID,27.5649,VALID,185,VALID,4.57734,
2009-08-07, 00:39:04,VALID,998.557,VALID,0,VALID,58.4581,VALID,0,VALID,27.5475,VALID,198,VALID,3.55156,
2009-08-07, 00:40:04,VALID,998.533,VALID,0,VALID,58.7557,VALID,0,VALID,27.4868,VALID,179,VALID,4.00273,
2009-08-07, 00:41:04,VALID,998.536,VALID,0,VALID,58.7023,VALID,0,VALID,27.4672,VALID,195,VALID,3.50508,
2009-08-07, 00:42:04,VALID,998.567,VALID,0,VALID,58.9388,VALID,0,VALID,27.4086,VALID,181,VALID,4.71523,
2009-08-07, 00:43:04,VALID,998.556,VALID,0,VALID,59.0075,VALID,0,VALID,27.3891,VALID,192,VALID,3.48125,
2009-08-07, 00:44:04,VALID,998.564,VALID,0,VALID,59.1601,VALID,0,VALID,27.3891,VALID,191,VALID,3.18203,
2009-08-07, 00:45:04,VALID,998.539,VALID,0,VALID,59.2135,VALID,0,VALID,27.3696,VALID,200,VALID,3.57773,
2009-08-07, 00:46:04,VALID,998.466,VALID,0,VALID,58.832,VALID,0,VALID,27.3696,VALID,207,VALID,4.08281,
2009-08-07, 00:47:04,VALID,998.51,VALID,0,VALID,59.1067,VALID,0,VALID,27.3891,VALID,180,VALID,3.36562,
2009-08-07, 00:48:04,VALID,998.469,VALID,0,VALID,59.1524,VALID,0,VALID,27.35,VALID,177,VALID,3.94297,
2009-08-07, 00:49:04,VALID,998.422,VALID,0,VALID,59.1524,VALID,0,VALID,27.35,VALID,174,VALID,4.49453,
2009-08-07, 00:50:04,VALID,998.376,VALID,0,VALID,59.2211,VALID,0,VALID,27.311,VALID,175,VALID,5.1707,
2009-08-07, 00:51:04,VALID,998.331,VALID,0,VALID,58.9388,VALID,0,VALID,27.311,VALID,183,VALID,3.77227,
2009-08-07, 00:52:04,VALID,998.282,VALID,0,VALID,58.626,VALID,0,VALID,27.35,VALID,185,VALID,3.87305,
2009-08-07, 00:53:04,VALID,998.293,VALID,0,VALID,58.5726,VALID,0,VALID,27.3891,VALID,181,VALID,6.33086,
2009-08-07, 00:54:04,VALID,998.292,VALID,0,VALID,58.4658,VALID,0,VALID,27.4086,VALID,180,VALID,5.37305,
2009-08-07, 00:55:04,VALID,998.272,VALID,0,VALID,58.1835,VALID,0,VALID,27.4477,VALID,200,VALID,3.99766,
2009-08-07, 00:56:04,VALID,998.29,VALID,0,VALID,58.5573,VALID,0,VALID,27.4282,VALID,173,VALID,3.73516,
2009-08-07, 00:57:04,VALID,998.289,VALID,0,VALID,58.6718,VALID,0,VALID,27.3696,VALID,181,VALID,3.43906,
2009-08-07, 00:58:04,VALID,998.326,VALID,0,VALID,58.6718,VALID,0,VALID,27.3696,VALID,204,VALID,2.9707,
2009-08-07, 00:59:04,VALID,998.301,VALID,0,VALID,58.1148,VALID,0,VALID,27.4282,VALID,201,VALID,3.81953,
2009-08-07, 01:00:04,VALID,998.296,VALID,0,VALID,57.9241,VALID,0,VALID,27.4477,VALID,187,VALID,4.69805,
2009-08-07, 01:01:04,VALID,998.288,VALID,0,VALID,57.9164,VALID,0,VALID,27.4868,VALID,198,VALID,3.88633,
2009-08-07, 01:02:04,VALID,998.264,VALID,0,VALID,57.7486,VALID,0,VALID,27.4868,VALID,210,VALID,3.92305,
2009-08-07, 01:03:04,VALID,998.291,VALID,0,VALID,58.008,VALID,0,VALID,27.4868,VALID,193,VALID,2.1043,
2009-08-07, 01:04:04,VALID,998.298,VALID,0,VALID,58.1759,VALID,0,VALID,27.4868,VALID,187,VALID,2.7707,
2009-08-07, 01:05:04,VALID,998.213,VALID,0,VALID,58.3056,VALID,0,VALID,27.4086,VALID,185,VALID,3.31523,
2009-08-07, 01:06:04,VALID,998.176,VALID,0,VALID,58.2521,VALID,0,VALID,27.3891,VALID,182,VALID,3.8875,
2009-08-07, 01:07:04,VALID,998.13,VALID,0,VALID,58.4505,VALID,0,VALID,27.3891,VALID,172,VALID,2.54297,
2009-08-07, 01:08:04,VALID,998.152,VALID,0,VALID,58.5573,VALID,0,VALID,27.35,VALID,185,VALID,3.01289,
2009-08-07, 01:09:04,VALID,998.169,VALID,0,VALID,58.6565,VALID,0,VALID,27.3305,VALID,185,VALID,4.04453,
2009-08-07, 01:10:04,VALID,998.137,VALID,0,VALID,58.4658,VALID,0,VALID,27.2698,VALID,174,VALID,3.76094,
2009-08-07, 01:11:04,VALID,998.149,VALID,0,VALID,58.5268,VALID,0,VALID,27.2915,VALID,169,VALID,4.04688,
2009-08-07, 01:12:04,VALID,998.187,VALID,0,VALID,58.6336,VALID,0,VALID,27.311,VALID,180,VALID,2.38594,
2009-08-07, 01:13:04,VALID,998.175,VALID,0,VALID,58.6031,VALID,0,VALID,27.311,VALID,171,VALID,3.9125,
2009-08-07, 01:14:04,VALID,998.147,VALID,0,VALID,58.5802,VALID,0,VALID,27.2698,VALID,180,VALID,4.86875,
2009-08-07, 01:15:04,VALID,998.169,VALID,0,VALID,58.4276,VALID,0,VALID,27.311,VALID,177,VALID,4.61758,
2009-08-07, 01:16:04,VALID,998.153,VALID,0,VALID,58.2674,VALID,0,VALID,27.3305,VALID,180,VALID,5.44492,
2009-08-07, 01:17:04,VALID,998.213,VALID,0,VALID,58.0919,VALID,0,VALID,27.35,VALID,177,VALID,5.65273,
2009-08-07, 01:18:04,VALID,998.211,VALID,0,VALID,58.0919,VALID,0,VALID,27.4086,VALID,174,VALID,4.85,
2009-08-07, 01:19:04,VALID,998.224,VALID,0,VALID,58.0614,VALID,0,VALID,27.4086,VALID,182,VALID,4.57461,
2009-08-07, 01:20:04,VALID,998.23,VALID,0,VALID,58.3284,VALID,0,VALID,27.3891,VALID,177,VALID,3.71875,
2009-08-07, 01:21:04,VALID,998.245,VALID,0,VALID,58.893,VALID,0,VALID,27.2915,VALID,168,VALID,2.53164,
2009-08-07, 01:22:04,VALID,998.256,VALID,0,VALID,59.0456,VALID,0,VALID,27.2524,VALID,164,VALID,3.42188,
2009-08-07, 01:23:04,VALID,998.223,VALID,0,VALID,59.2211,VALID,0,VALID,27.1743,VALID,171,VALID,3.46406,
2009-08-07, 01:24:04,VALID,998.245,VALID,0,VALID,59.0304,VALID,0.112286,VALID,27.1547,VALID,170,VALID,4.95352,
2009-08-07, 01:25:04,VALID,998.276,VALID,0,VALID,58.8701,VALID,0,VALID,27.2329,VALID,170,VALID,3.62812,
2009-08-07, 01:26:04,VALID,998.304,VALID,0,VALID,58.5573,VALID,0,VALID,27.2524,VALID,175,VALID,4.03047,
2009-08-07, 01:27:04,VALID,998.242,VALID,0,VALID,58.5421,VALID,0,VALID,27.2915,VALID,181,VALID,4.83281,
2009-08-07, 01:28:04,VALID,998.274,VALID,0,VALID,58.7404,VALID,0,VALID,27.311,VALID,173,VALID,3.25742,
2009-08-07, 01:29:04,VALID,998.29,VALID,0,VALID,58.5116,VALID,0,VALID,27.3326,VALID,189,VALID,4.46641,
2009-08-07, 01:30:04,VALID,998.257,VALID,0,VALID,57.9241,VALID,0,VALID,27.4086,VALID,166,VALID,4.60039,
2009-08-07, 01:31:04,VALID,998.273,VALID,0,VALID,57.8249,VALID,0,VALID,27.4672,VALID,179,VALID,4.47305,
2009-08-07, 01:32:04,VALID,998.296,VALID,0,VALID,57.7715,VALID,0,VALID,27.4868,VALID,164,VALID,5.26758,
2009-08-07, 01:33:04,VALID,998.274,VALID,0,VALID,57.7028,VALID,0,VALID,27.4868,VALID,176,VALID,4.26406,
2009-08-07, 01:34:04,VALID,998.257,VALID,0,VALID,57.8707,VALID,0,VALID,27.5063,VALID,175,VALID,3.81016,
2009-08-07, 01:35:04,VALID,998.265,VALID,0,VALID,57.7486,VALID,0.112286,VALID,27.4868,VALID,177,VALID,4.88672,
2009-08-07, 01:36:04,VALID,998.253,VALID,0,VALID,57.6723,VALID,0,VALID,27.4672,VALID,173,VALID,4.77812,
2009-08-07, 01:37:04,VALID,998.201,VALID,0,VALID,57.5807,VALID,0,VALID,27.5063,VALID,184,VALID,4.41367,
2009-08-07, 01:38:04,VALID,998.174,VALID,0,VALID,57.2603,VALID,0,VALID,27.5454,VALID,171,VALID,5.19688,
2009-08-07, 01:39:04,VALID,998.195,VALID,0,VALID,57.4816,VALID,0,VALID,27.5649,VALID,175,VALID,4.53086,
2009-08-07, 01:40:04,VALID,998.167,VALID,0,VALID,57.8707,VALID,0,VALID,27.4652,VALID,184,VALID,3.76797,
2009-08-07, 01:41:04,VALID,998.163,VALID,0,VALID,57.4434,VALID,0,VALID,27.5258,VALID,180,VALID,4.66367,
2009-08-07, 01:42:04,VALID,998.199,VALID,0,VALID,57.5273,VALID,0,VALID,27.5042,VALID,171,VALID,3.66797,
2009-08-07, 01:43:04,VALID,998.166,VALID,0,VALID,57.6418,VALID,0,VALID,27.5258,VALID,165,VALID,3.94648,
2009-08-07, 01:44:04,VALID,998.135,VALID,0,VALID,57.8096,VALID,0,VALID,27.4868,VALID,168,VALID,2.93047,
2009-08-07, 01:45:04,VALID,998.167,VALID,0,VALID,58.275,VALID,0,VALID,27.4086,VALID,161,VALID,3.16484,
2009-08-07, 01:46:04,VALID,998.184,VALID,0,VALID,58.4887,VALID,0,VALID,27.2915,VALID,178,VALID,3.76016,
2009-08-07, 01:47:04,VALID,998.188,VALID,0,VALID,58.0538,VALID,0,VALID,27.311,VALID,178,VALID,4.13711,
2009-08-07, 01:48:04,VALID,998.23,VALID,0,VALID,57.9622,VALID,0,VALID,27.3696,VALID,163,VALID,3.98047,
2009-08-07, 01:49:04,VALID,998.213,VALID,0,VALID,58.2293,VALID,0,VALID,27.3284,VALID,168,VALID,3.34687,
2009-08-07, 01:50:04,VALID,998.174,VALID,0,VALID,58.3742,VALID,0,VALID,27.311,VALID,174,VALID,3.0668,
2009-08-07, 01:51:04,VALID,998.187,VALID,0,VALID,58.2445,VALID,0,VALID,27.35,VALID,174,VALID,3.68359,
2009-08-07, 01:52:04,VALID,998.129,VALID,0,VALID,57.7639,VALID,0,VALID,27.4086,VALID,171,VALID,4.38164,
2009-08-07, 01:53:04,VALID,998.157,VALID,0,VALID,57.802,VALID,0.112286,VALID,27.4672,VALID,169,VALID,3.73438,
2009-08-07, 01:54:04,VALID,998.075,VALID,0,VALID,57.5273,VALID,0,VALID,27.4868,VALID,178,VALID,4.27656,
2009-08-07, 01:55:04,VALID,998.057,VALID,0,VALID,57.6342,VALID,0,VALID,27.4868,VALID,172,VALID,3.81758,
2009-08-07, 01:56:04,VALID,998.045,VALID,0,VALID,58.0309,VALID,0.112286,VALID,27.4282,VALID,175,VALID,2.97422,
2009-08-07, 01:57:04,VALID,997.992,VALID,0,VALID,57.741,VALID,0.112286,VALID,27.4868,VALID,181,VALID,3.89414,
2009-08-07, 01:58:04,VALID,997.978,VALID,0,VALID,57.4053,VALID,0,VALID,27.5063,VALID,190,VALID,3.75586,
2009-08-07, 01:59:04,VALID,997.94,VALID,0,VALID,57.5426,VALID,0.112286,VALID,27.5258,VALID,190,VALID,3.3668,
2009-08-07, 02:00:04,VALID,997.907,VALID,0,VALID,57.3747,VALID,0,VALID,27.5238,VALID,175,VALID,4.75195,
2009-08-07, 02:01:04,VALID,997.884,VALID,0,VALID,57.3137,VALID,0.112286,VALID,27.5649,VALID,195,VALID,3.72109,
2009-08-07, 02:02:04,VALID,997.854,VALID,0,VALID,57.5426,VALID,0,VALID,27.5258,VALID,177,VALID,3.73398,
2009-08-07, 02:03:04,VALID,997.83,VALID,0,VALID,57.6342,VALID,0,VALID,27.5063,VALID,198,VALID,3.24922,
2009-08-07, 02:04:04,VALID,997.827,VALID,0,VALID,57.657,VALID,0.112286,VALID,27.4868,VALID,191,VALID,3.43906,
2009-08-07, 02:05:04,VALID,997.771,VALID,0,VALID,57.451,VALID,0,VALID,27.5063,VALID,187,VALID,4.00313,
2009-08-07, 02:06:04,VALID,997.764,VALID,0,VALID,57.1764,VALID,0,VALID,27.5063,VALID,183,VALID,3.69414,
2009-08-07, 02:07:04,VALID,997.777,VALID,0,VALID,57.184,VALID,0.112286,VALID,27.5454,VALID,184,VALID,4.11523,
2009-08-07, 02:08:04,VALID,997.767,VALID,0,VALID,56.8864,VALID,0,VALID,27.5042,VALID,179,VALID,5.54961,
2009-08-07, 02:09:04,VALID,997.782,VALID,0,VALID,56.978,VALID,0,VALID,27.5845,VALID,189,VALID,4.49219,
2009-08-07, 02:10:04,VALID,997.793,VALID,0,VALID,56.8864,VALID,0,VALID,27.5845,VALID,173,VALID,4.46055,
2009-08-07, 02:11:04,VALID,997.8,VALID,0,VALID,57.0162,VALID,0,VALID,27.5845,VALID,173,VALID,3.21406,
2009-08-07, 02:12:04,VALID,997.812,VALID,0,VALID,57.0619,VALID,0,VALID,27.5454,VALID,178,VALID,2.57188,
2009-08-07, 02:13:04,VALID,997.824,VALID,0,VALID,57.2527,VALID,0,VALID,27.5063,VALID,174,VALID,3.02617,
2009-08-07, 02:14:04,VALID,997.839,VALID,0,VALID,57.4968,VALID,0,VALID,27.4456,VALID,184,VALID,4.1375,
2009-08-07, 02:15:04,VALID,997.808,VALID,0,VALID,57.0848,VALID,0,VALID,27.4868,VALID,194,VALID,2.59102,
2009-08-07, 02:16:04,VALID,997.792,VALID,0,VALID,56.6804,VALID,0,VALID,27.5042,VALID,192,VALID,2.50078,
2009-08-07, 02:17:04,VALID,997.862,VALID,0,VALID,56.7186,VALID,0,VALID,27.5845,VALID,179,VALID,3.22148,
2009-08-07, 02:18:04,VALID,997.809,VALID,0,VALID,56.5889,VALID,0,VALID,27.5845,VALID,193,VALID,3.03828,
2009-08-07, 02:19:04,VALID,997.82,VALID,0,VALID,56.4058,VALID,0,VALID,27.6431,VALID,177,VALID,5.73633,
2009-08-07, 02:20:04,VALID,997.804,VALID,0,VALID,56.4973,VALID,0,VALID,27.6431,VALID,174,VALID,4.15977,
2009-08-07, 02:21:04,VALID,997.784,VALID,0,VALID,56.5202,VALID,0,VALID,27.604,VALID,178,VALID,4.88203,
2009-08-07, 02:22:04,VALID,997.718,VALID,0,VALID,56.421,VALID,0,VALID,27.6431,VALID,200,VALID,3.38594,
2009-08-07, 02:23:04,VALID,997.674,VALID,0,VALID,56.7491,VALID,0,VALID,27.604,VALID,179,VALID,2.09766,
2009-08-07, 02:24:04,VALID,997.729,VALID,0,VALID,56.7567,VALID,0.112286,VALID,27.5649,VALID,175,VALID,3.51914,
2009-08-07, 02:25:04,VALID,997.649,VALID,0,VALID,57.039,VALID,0,VALID,27.4868,VALID,179,VALID,4.50977,
2009-08-07, 02:26:04,VALID,997.64,VALID,0,VALID,56.4287,VALID,0,VALID,27.5042,VALID,187,VALID,4.05742,
2009-08-07, 02:27:04,VALID,997.665,VALID,0,VALID,56.2761,VALID,0,VALID,27.5845,VALID,180,VALID,4.66719,
2009-08-07, 02:28:04,VALID,997.635,VALID,0,VALID,56.0701,VALID,0,VALID,27.604,VALID,172,VALID,4.24414,
2009-08-07, 02:29:04,VALID,997.63,VALID,0,VALID,55.7496,VALID,0,VALID,27.6626,VALID,170,VALID,5.61211,
2009-08-07, 02:30:04,VALID,997.71,VALID,0,VALID,56.0624,VALID,0,VALID,27.6821,VALID,188,VALID,3.10898,
2009-08-07, 02:31:04,VALID,997.704,VALID,0,VALID,55.9099,VALID,0,VALID,27.7017,VALID,197,VALID,4.77422,
2009-08-07, 02:32:04,VALID,997.743,VALID,0,VALID,55.9785,VALID,0,VALID,27.7017,VALID,177,VALID,4.97266,
2009-08-07, 02:33:04,VALID,997.742,VALID,0,VALID,55.9556,VALID,0,VALID,27.6626,VALID,179,VALID,5.88398,
2009-08-07, 02:34:04,VALID,997.679,VALID,0,VALID,55.475,VALID,0,VALID,27.6431,VALID,175,VALID,4.26406,
2009-08-07, 02:35:04,VALID,997.676,VALID,0,VALID,55.3758,VALID,0,VALID,27.7212,VALID,170,VALID,4.45898,
2009-08-07, 02:36:04,VALID,997.721,VALID,0,VALID,55.3758,VALID,0,VALID,27.7993,VALID,171,VALID,5.52422,
2009-08-07, 02:37:04,VALID,997.695,VALID,0,VALID,55.4292,VALID,0,VALID,27.7798,VALID,176,VALID,4.04883,
2009-08-07, 02:38:04,VALID,997.689,VALID,0,VALID,55.1774,VALID,0,VALID,27.7993,VALID,178,VALID,4.20781,
2009-08-07, 02:39:04,VALID,997.621,VALID,0,VALID,55.3224,VALID,0,VALID,27.7603,VALID,188,VALID,4.17812,
2009-08-07, 02:40:04,VALID,997.608,VALID,0,VALID,55.4673,VALID,0,VALID,27.7798,VALID,172,VALID,2.97305,
2009-08-07, 02:41:04,VALID,997.569,VALID,0,VALID,55.4521,VALID,0,VALID,27.7428,VALID,192,VALID,4.17227,
2009-08-07, 02:42:04,VALID,997.572,VALID,0,VALID,55.3758,VALID,0,VALID,27.7819,VALID,187,VALID,3.8668,
2009-08-07, 02:43:04,VALID,997.533,VALID,0,VALID,55.3834,VALID,0,VALID,27.7407,VALID,170,VALID,3.1418,
2009-08-07, 02:44:04,VALID,997.561,VALID,0,VALID,55.7039,VALID,0,VALID,27.6821,VALID,166,VALID,3.64336,
2009-08-07, 02:45:04,VALID,997.522,VALID,0,VALID,55.7725,VALID,0,VALID,27.6235,VALID,179,VALID,3.9332,
2009-08-07, 02:46:04,VALID,997.512,VALID,0,VALID,55.7191,VALID,0,VALID,27.6626,VALID,181,VALID,4.48125,
2009-08-07, 02:47:04,VALID,997.519,VALID,0,VALID,55.9175,VALID,0,VALID,27.6821,VALID,178,VALID,3.51836,
2009-08-07, 02:48:04,VALID,997.493,VALID,0,VALID,56.0243,VALID,0,VALID,27.6431,VALID,191,VALID,3.18359,
2009-08-07, 02:49:04,VALID,997.456,VALID,0,VALID,55.9251,VALID,0,VALID,27.6431,VALID,189,VALID,3.53867,
2009-08-07, 02:50:04,VALID,997.443,VALID,0,VALID,55.8488,VALID,0,VALID,27.6235,VALID,188,VALID,3.82617,
2009-08-07, 02:51:04,VALID,997.45,VALID,0,VALID,56.1769,VALID,0,VALID,27.6452,VALID,171,VALID,4.28203,
2009-08-07, 02:52:04,VALID,997.467,VALID,0,VALID,56.4668,VALID,0,VALID,27.5865,VALID,180,VALID,3.98281,
2009-08-07, 02:53:04,VALID,997.463,VALID,0,VALID,56.4897,VALID,0,VALID,27.5258,VALID,195,VALID,3.72109,
2009-08-07, 02:54:04,VALID,997.472,VALID,0,VALID,56.9017,VALID,0,VALID,27.5063,VALID,201,VALID,2.26641,
2009-08-07, 02:55:04,VALID,997.481,VALID,0,VALID,56.9627,VALID,0,VALID,27.4477,VALID,194,VALID,3.04102,
2009-08-07, 02:56:04,VALID,997.474,VALID,0,VALID,57.0924,VALID,0,VALID,27.4282,VALID,187,VALID,3.17188,
2009-08-07, 02:57:04,VALID,997.455,VALID,0,VALID,57.3213,VALID,0,VALID,27.3696,VALID,181,VALID,2.78359,
2009-08-07, 02:58:04,VALID,997.392,VALID,0,VALID,57.3519,VALID,0,VALID,27.35,VALID,181,VALID,3.24492,
2009-08-07, 02:59:04,VALID,997.336,VALID,0,VALID,57.4282,VALID,0,VALID,27.3326,VALID,175,VALID,3.19766,
2009-08-07, 03:00:04,VALID,997.333,VALID,0,VALID,57.7181,VALID,0,VALID,27.2915,VALID,177,VALID,2.95547,
2009-08-07, 03:01:04,VALID,997.317,VALID,0,VALID,58.2598,VALID,0,VALID,27.1938,VALID,168,VALID,2.77148,
2009-08-07, 03:02:04,VALID,997.328,VALID,0,VALID,58.4124,VALID,0,VALID,27.1177,VALID,176,VALID,3.38711,
2009-08-07, 03:03:04,VALID,997.31,VALID,0,VALID,58.3666,VALID,0,VALID,27.1373,VALID,168,VALID,3.71953,
2009-08-07, 03:04:04,VALID,997.312,VALID,0,VALID,58.5039,VALID,0,VALID,27.1157,VALID,179,VALID,3.05312,
2009-08-07, 03:05:04,VALID,997.296,VALID,0,VALID,58.4276,VALID,0,VALID,27.0766,VALID,200,VALID,2.975,
2009-08-07, 03:06:04,VALID,997.33,VALID,0,VALID,57.947,VALID,0,VALID,27.1547,VALID,186,VALID,3.71172,
2009-08-07, 03:07:04,VALID,997.295,VALID,0,VALID,57.7028,VALID,0,VALID,27.2329,VALID,173,VALID,4.00508,
2009-08-07, 03:08:04,VALID,997.312,VALID,0,VALID,57.9088,VALID,0,VALID,27.1743,VALID,173,VALID,4.16406,
2009-08-07, 03:09:04,VALID,997.31,VALID,0,VALID,57.7028,VALID,0,VALID,27.2133,VALID,172,VALID,3.78906,
2009-08-07, 03:10:04,VALID,997.274,VALID,0,VALID,57.5655,VALID,0,VALID,27.2329,VALID,175,VALID,3.34687,
2009-08-07, 03:11:04,VALID,997.245,VALID,0,VALID,57.3366,VALID,0,VALID,27.2524,VALID,165,VALID,4.0168,
2009-08-07, 03:12:04,VALID,997.242,VALID,0,VALID,57.3671,VALID,0.112286,VALID,27.2935,VALID,174,VALID,3.50156,
2009-08-07, 03:13:04,VALID,997.206,VALID,0,VALID,57.0848,VALID,0,VALID,27.2915,VALID,177,VALID,3.79609,
2009-08-07, 03:14:04,VALID,997.231,VALID,0,VALID,56.7339,VALID,0,VALID,27.3696,VALID,182,VALID,3.44648,
2009-08-07, 03:15:04,VALID,997.258,VALID,0,VALID,56.5507,VALID,0,VALID,27.4086,VALID,177,VALID,3.69922,
2009-08-07, 03:16:04,VALID,997.301,VALID,0,VALID,56.7262,VALID,0,VALID,27.4303,VALID,182,VALID,3.03203,
2009-08-07, 03:17:04,VALID,997.245,VALID,0,VALID,56.3676,VALID,0,VALID,27.4282,VALID,184,VALID,3.8832,
2009-08-07, 03:18:04,VALID,997.255,VALID,0,VALID,56.4592,VALID,0,VALID,27.5084,VALID,180,VALID,3.23516,
2009-08-07, 03:19:04,VALID,997.231,VALID,0,VALID,56.4592,VALID,0,VALID,27.4889,VALID,185,VALID,3.10039,
2009-08-07, 03:20:04,VALID,997.215,VALID,0,VALID,56.5202,VALID,0,VALID,27.4477,VALID,185,VALID,3.22813,
2009-08-07, 03:21:04,VALID,997.197,VALID,0,VALID,56.4439,VALID,0,VALID,27.4868,VALID,181,VALID,4.17734,
2009-08-07, 03:22:04,VALID,997.174,VALID,0,VALID,56.3753,VALID,0,VALID,27.4868,VALID,186,VALID,4.28398,
2009-08-07, 03:23:04,VALID,997.143,VALID,0,VALID,56.3066,VALID,0,VALID,27.5063,VALID,186,VALID,3.91836,
2009-08-07, 03:24:04,VALID,997.173,VALID,0,VALID,56.36,VALID,0,VALID,27.4868,VALID,182,VALID,4.01953,
2009-08-07, 03:25:04,VALID,997.22,VALID,0,VALID,56.627,VALID,0,VALID,27.4672,VALID,183,VALID,3.93477,
2009-08-07, 03:26:04,VALID,997.218,VALID,0,VALID,56.6652,VALID,0,VALID,27.4477,VALID,192,VALID,3.50742,
2009-08-07, 03:27:04,VALID,997.205,VALID,0,VALID,56.093,VALID,0,VALID,27.4672,VALID,200,VALID,2.42383,
2009-08-07, 03:28:04,VALID,997.236,VALID,0,VALID,56.2303,VALID,0,VALID,27.5258,VALID,187,VALID,2.74961,
2009-08-07, 03:29:04,VALID,997.246,VALID,0,VALID,55.681,VALID,0,VALID,27.5454,VALID,183,VALID,4.69219,
2009-08-07, 03:30:04,VALID,997.256,VALID,0,VALID,55.6352,VALID,0,VALID,27.6235,VALID,176,VALID,4.27695,
2009-08-07, 03:31:04,VALID,997.23,VALID,0,VALID,55.597,VALID,0,VALID,27.6214,VALID,185,VALID,3.56914,
2009-08-07, 03:32:04,VALID,997.205,VALID,0,VALID,55.2308,VALID,0,VALID,27.6626,VALID,183,VALID,3.8957,
2009-08-07, 03:33:04,VALID,997.227,VALID,0,VALID,54.918,VALID,0,VALID,27.7624,VALID,175,VALID,4.42891,
2009-08-07, 03:34:04,VALID,997.269,VALID,0,VALID,54.7273,VALID,0,VALID,27.7603,VALID,179,VALID,4.59492,
2009-08-07, 03:35:04,VALID,997.257,VALID,0,VALID,54.9867,VALID,0,VALID,27.7407,VALID,180,VALID,3.58555,
2009-08-07, 03:36:04,VALID,997.293,VALID,0,VALID,55.0782,VALID,0,VALID,27.7407,VALID,184,VALID,3.13438,
2009-08-07, 03:37:04,VALID,997.319,VALID,0,VALID,55.0782,VALID,0,VALID,27.7212,VALID,181,VALID,3.02461,
2009-08-07, 03:38:04,VALID,997.323,VALID,0,VALID,54.8493,VALID,0,VALID,27.7407,VALID,192,VALID,1.99453,
2009-08-07, 03:39:04,VALID,997.31,VALID,0,VALID,55.2079,VALID,0,VALID,27.7407,VALID,187,VALID,1.73633,
2009-08-07, 03:40:04,VALID,997.3,VALID,0,VALID,55.0477,VALID,0,VALID,27.7017,VALID,185,VALID,2.49375,
2009-08-07, 03:41:04,VALID,997.318,VALID,0,VALID,54.6433,VALID,0,VALID,27.7798,VALID,183,VALID,4.62656,
2009-08-07, 03:42:04,VALID,997.297,VALID,0,VALID,54.7349,VALID,0,VALID,27.8189,VALID,221,VALID,1.66133,
2009-08-07, 03:43:04,VALID,997.322,VALID,0,VALID,54.8722,VALID,0,VALID,27.7798,VALID,180,VALID,3.26289,
2009-08-07, 03:44:04,VALID,997.306,VALID,0,VALID,55.2156,VALID,0,VALID,27.7428,VALID,207,VALID,2.41875,
2009-08-07, 03:45:04,VALID,997.346,VALID,0,VALID,55.1393,VALID,0,VALID,27.7017,VALID,204,VALID,2.73945,